Location: Zlin
(49.2330°N, 17.6670°E)
Time: 01:12:30
(UTC+02:00)

ISS - Visible Passes

Search period start: 06 May 2021 00:00
Search period end: 16 May 2021 00:00
Orbit: 418 x 421 km, 51.6° (Epoch: 05 May)

Date Brightness Start Highest point End Pass type
(mag) Time Alt. Az. Time Alt. Az. Time Alt. Az.
06 May -3.9 02:48:19 73° SSW 02:48:33 79° SSE 02:51:56 10° ENE visible
06 May -3.1 04:22:10 10° W 04:25:30 54° N 04:28:50 10° ENE visible
07 May -2.4 02:02:24 33° E 02:02:24 33° E 02:04:29 10° ENE visible
07 May -3.2 03:35:20 15° W 03:38:01 58° N 03:41:22 10° ENE visible
08 May -1.1 01:16:27 14° E 01:16:27 14° E 01:16:59 10° ENE visible
08 May -3.5 02:49:24 37° W 02:50:31 66° NNW 02:53:54 10° ENE visible
08 May -3.1 04:24:14 10° WNW 04:27:35 59° N 04:30:56 10° E visible
09 May -3.5 02:03:25 68° NE 02:03:25 68° NE 02:06:28 10° ENE visible
09 May -3.1 03:36:45 10° WNW 03:40:05 55° N 03:43:25 10° E visible
10 May -1.9 01:17:25 25° ENE 01:17:25 25° ENE 01:19:00 10° ENE visible
10 May -3.1 02:50:21 19° WNW 02:52:35 54° N 02:55:55 10° ENE visible
10 May -3.7 04:26:12 10° WNW 04:29:36 84° NNE 04:32:59 10° ESE visible
11 May -0.9 00:31:23 11° ENE 00:31:23 11° ENE 00:31:33 10° ENE visible
11 May -3.2 02:04:19 44° WNW 02:05:04 58° N 02:08:25 10° ENE visible
11 May -3.4 03:38:45 10° WNW 03:42:07 68° NNE 03:45:30 10° E visible
12 May -3.0 01:18:13 51° NE 01:18:13 51° NE 01:20:57 10° ENE visible
12 May -3.2 02:51:17 10° WNW 02:54:38 59° N 02:57:59 10° E visible
12 May -3.6 04:28:09 10° WNW 04:31:28 54° SSW 04:34:47 10° SE visible
13 May -1.8 00:32:03 23° ENE 00:32:03 23° ENE 00:33:29 10° ENE visible
13 May -3.1 02:04:58 20° WNW 02:07:06 55° N 02:10:27 10° E visible
13 May -3.9 03:40:40 10° WNW 03:44:03 75° SSW 03:47:26 10° ESE visible
13 May -1.1 23:45:40 12° ENE 23:45:40 12° ENE 23:46:02 10° ENE visible
14 May -3.1 01:18:33 36° WNW 01:19:36 54° N 01:22:56 10° ENE visible
14 May -3.8 02:53:13 10° WNW 02:56:36 84° NNE 03:00:00 10° ESE visible
14 May -1.9 21:17:27 10° SSE 21:18:58 13° SE 21:20:29 10° ESE visible
14 May -3.8 22:51:55 10° SW 22:55:13 58° SSE 22:58:33 10° ENE visible
15 May -3.2 00:28:44 10° W 00:32:05 58° N 00:35:25 10° ENE visible
15 May -3.5 02:05:45 10° WNW 02:09:07 68° NNE 02:12:30 10° E visible
15 May -3.2 03:42:41 10° W 03:45:50 37° SSW 03:48:59 10° SE visible
15 May -3.4 22:04:39 10° SW 22:07:50 40° SSE 22:11:01 10° ENE visible
15 May -3.4 23:41:13 10° W 23:44:34 66° NNW 23:47:56 10° ENE visible
